Location: Newark
(45.2500°N, 7.5833°E)
Time: 04:36:56
(UTC+00:00)

NUDT-PHONESAT - Pass Details

Date: 25 February 2020
Orbit: 487 x 502 km, 97.4° (Epoch: 04 April)

Event Time Altitude Azimuth Distance (km) Brightness Sun altitude
Rises 18:20:21 0° 212° (SSW) 2,546 ? -13.0°
Reaches altitude 10° 18:23:26 10° 242° (WSW) 1,674 ? -13.6°
Maximum altitude 18:25:04 13° 270° (W) 1,520 ? -13.9°
Drops below altitude 10° 18:26:42 10° 297° (WNW) 1,683 ? -14.2°
Sets 18:29:51 0° 327° (NNW) 2,574 ? -14.7°
